{"data":{"norad_id":60584,"epoch":"2026-05-25T04:34:28.303104Z","epoch_age_seconds":55764,"freshness":"FRESH","line1":"1 60584U 24150B   26145.19060536  .00002870  00000+0  96048-4 0  9990","line2":"2 60584  53.1621 311.0069 0001315  87.6780 272.4373 15.34395932 99762","mean_motion":15.34395932,"eccentricity":0.0001315,"inclination_deg":53.1621,"raan_deg":311.0069,"arg_perigee_deg":87.678,"mean_anomaly_deg":272.4373,"bstar":9.6048e-5,"rev_number":9976,"period_min":93.848006891092,"perigee_km":461.81575910556,"apogee_km":463.61490326866,"semimajor_km":6840.8523311871,"source":"CELESTRAK","updated_at":"2026-05-25T13:38:19.278116Z"}}